M I D A S
Marine Information and Data Acquisition System
Tripno 1899 of the Zeeleeuw from 2010-06-11 06:57:26 to 2010-06-11 10:32:55
Back to CruiseResearch ActivitiesStationsMapUnderway DataData graphs

EquipmentUnitsComments
TimeDGPSUTC
LatitudeDGPSDM.mWGS84
LongitudeDGPSDM.mWGS84
SpeedMeteo Stationm/sRelative wind speed
DirectionMeteo StationdegRelative wind direction
TemperatureMeteo Stationdeg CelciusAir temperature
PressureMeteo StationPaAtmospheric pressure
HumidityMeteo Station%Relative humidity
Missing or incorrect values are displayed as -999
Metereological data collected by the RV Zeeleeuw from 2010-06-11 06:54:28 to 2010-06-11 11:08:51
                                                                                    Next 1000 lines
Time Latitude Longitude Speed Direction Temperature Pressure Humidity
2010-06-11 06:54:38 51°13.663 2°55.956 4.8 23 14.9 100380 48
2010-06-11 06:54:43 51°13.664 2°55.952 4 26 14.9 100380 46
2010-06-11 06:54:48 51°13.665 2°55.947 4.2 21 14.9 100380 46
2010-06-11 06:54:53 51°13.667 2°55.941 3.9 21 14.9 100390 45
2010-06-11 06:54:59 51°13.669 2°55.933 3.7 32 14.9 100390 45
2010-06-11 06:55:05 51°13.671 2°55.925 3.4 22 14.9 100380 47
2010-06-11 06:55:11 51°13.674 2°55.915 2.7 36 14.9 100380 47
2010-06-11 06:55:16 51°13.676 2°55.906 3.3 34 14.8 100380 45
2010-06-11 06:55:22 51°13.678 2°55.895 2.2 75 14.8 100380 45
2010-06-11 06:55:26 51°13.68 2°55.888 3.7 22 14.9 100380 46
2010-06-11 06:55:31 51°13.681 2°55.877 3.6 43 14.9 100380 46
2010-06-11 06:55:37 51°13.683 2°55.865 3.7 27 14.9 100380 46
2010-06-11 06:55:42 51°13.684 2°55.855 3.8 44 14.9 100380 46
2010-06-11 06:55:46 51°13.685 2°55.848 4.1 36 14.9 100380 48
2010-06-11 06:55:51 51°13.686 2°55.838 4.6 37 14.9 100380 48
2010-06-11 06:55:56 51°13.686 2°55.829 3.1 28 14.9 100380 48
2010-06-11 06:56:02 51°13.687 2°55.819 3.3 45 14.9 100380 48
2010-06-11 06:56:06 51°13.688 2°55.812 5.1 29 14.9 100380 45
2010-06-11 06:56:11 51°13.688 2°55.804 4.8 76 14.9 100380 45
2010-06-11 06:56:15 51°13.688 2°55.798 3.6 34 14.9 100380 47
2010-06-11 06:56:21 51°13.688 2°55.789 3.9 40 14.9 100380 47
2010-06-11 06:56:26 51°13.688 2°55.782 3.7 43 14.9 100380 44
2010-06-11 06:56:30 51°13.688 2°55.777 4.7 80 14.9 100380 44
2010-06-11 06:56:35 51°13.688 2°55.771 2.8 37 14.9 100380 45
2010-06-11 06:56:40 51°13.688 2°55.767 3.5 74 14.9 100380 45
2010-06-11 06:56:45 51°13.687 2°55.763 5 24 14.9 100380 48
2010-06-11 06:56:50 51°13.687 2°55.759 4.7 75 14.9 100380 48
2010-06-11 06:56:54 51°13.687 2°55.757 3.6 23 14.9 100390 45
2010-06-11 06:56:59 51°13.687 2°55.755 3.5 80 14.9 100390 45
2010-06-11 06:57:04 51°13.687 2°55.753 4.3 25 14.9 100380 46
2010-06-11 06:57:09 51°13.687 2°55.752 5 44 14.9 100380 46
2010-06-11 06:57:14 51°13.687 2°55.751 3.5 38 14.8 100380 47
2010-06-11 06:57:19 51°13.688 2°55.749 3.9 42 14.8 100380 47
2010-06-11 06:57:23 51°13.688 2°55.749 4.1 22 14.8 100380 45
2010-06-11 06:57:29 51°13.688 2°55.748 2.1 76 14.8 100380 45
2010-06-11 06:57:33 51°13.688 2°55.748 3.4 27 14.8 100380 45
2010-06-11 06:57:38 51°13.689 2°55.748 2.6 76 14.8 100380 45
2010-06-11 06:57:43 51°13.69 2°55.748 1 28 14.8 100380 45
2010-06-11 06:57:47 51°13.69 2°55.748 1.3 39 14.8 100380 45
2010-06-11 06:57:53 51°13.692 2°55.748 1.8 28 14.9 100380 47
2010-06-11 06:57:58 51°13.693 2°55.748 2.3 75 14.9 100380 47
2010-06-11 06:58:03 51°13.695 2°55.748 3.5 30 14.8 100390 44
2010-06-11 06:58:08 51°13.696 2°55.748 3.4 77 14.8 100390 44
2010-06-11 06:58:13 51°13.698 2°55.748 2.7 27 14.9 100380 45
2010-06-11 06:58:18 51°13.701 2°55.748 1.4 81 14.9 100380 45
2010-06-11 06:58:23 51°13.704 2°55.747 2 24 14.8 100380 45
2010-06-11 06:58:28 51°13.707 2°55.746 1.6 277 14.8 100380 45
2010-06-11 06:58:33 51°13.71 2°55.744 0.9 31 14.9 100380 45
2010-06-11 06:58:38 51°13.714 2°55.741 1.1 287 14.9 100380 45
2010-06-11 06:58:43 51°13.718 2°55.737 0.7 21 14.9 100380 44
2010-06-11 06:58:48 51°13.722 2°55.734 0.2 277 14.9 100380 44
2010-06-11 06:58:53 51°13.726 2°55.73 1.3 27 14.9 100380 46
2010-06-11 06:58:58 51°13.731 2°55.725 1.3 281 14.9 100380 46
2010-06-11 06:59:03 51°13.736 2°55.719 4 21 14.9 100380 45
2010-06-11 06:59:08 51°13.741 2°55.713 5 284 14.9 100380 45
2010-06-11 06:59:13 51°13.748 2°55.707 4.5 253 14.9 100380 48
2010-06-11 06:59:18 51°13.754 2°55.699 3.4 277 14.9 100380 48
2010-06-11 06:59:23 51°13.761 2°55.691 2.4 34 14.9 100380 48
2010-06-11 06:59:28 51°13.768 2°55.683 3.7 284 14.9 100380 48
2010-06-11 06:59:33 51°13.776 2°55.675 2.7 23 14.9 100380 46
2010-06-11 06:59:38 51°13.784 2°55.666 1.3 277 14.9 100380 46
2010-06-11 06:59:43 51°13.793 2°55.658 3.3 320 14.9 100380 45
2010-06-11 06:59:48 51°13.801 2°55.65 4.1 279 14.9 100380 45
2010-06-11 06:59:53 51°13.81 2°55.642 4.1 254 14.9 100380 49
2010-06-11 06:59:58 51°13.82 2°55.634 2.9 284 14.9 100380 49
2010-06-11 07:00:03 51°13.829 2°55.626 3.5 29 14.9 100380 48
2010-06-11 07:00:08 51°13.839 2°55.618 4 283 14.9 100380 48
2010-06-11 07:00:13 51°13.849 2°55.611 1.7 25 14.9 100380 46
2010-06-11 07:00:18 51°13.859 2°55.603 1.7 280 14.9 100380 46
2010-06-11 07:00:23 51°13.87 2°55.595 2.1 19 14.9 100380 48
2010-06-11 07:00:28 51°13.88 2°55.587 3.6 277 14.9 100380 48
2010-06-11 07:00:33 51°13.89 2°55.58 3.3 22 14.9 100380 45
2010-06-11 07:00:38 51°13.901 2°55.572 4.3 278 14.9 100380 45
2010-06-11 07:00:43 51°13.912 2°55.564 3.8 27 14.9 100390 45
2010-06-11 07:00:48 51°13.922 2°55.557 3.9 284 14.9 100390 45
2010-06-11 07:00:52 51°13.931 2°55.551 4.3 27 14.9 100380 48
2010-06-11 07:00:58 51°13.944 2°55.541 3 283 14.9 100380 48
2010-06-11 07:01:03 51°13.955 2°55.533 4 26 14.9 100380 45
2010-06-11 07:01:08 51°13.966 2°55.525 4.1 283 14.9 100380 45
2010-06-11 07:01:12 51°13.974 2°55.519 3.5 244 14.9 100380 48
2010-06-11 07:01:18 51°13.988 2°55.51 2.4 285 14.9 100380 48
2010-06-11 07:01:23 51°13.998 2°55.502 2.9 27 14.9 100390 45
2010-06-11 07:01:28 51°14.009 2°55.495 2.2 283 14.9 100390 45
2010-06-11 07:01:33 51°14.02 2°55.487 4.6 21 14.9 100380 46
2010-06-11 07:01:38 51°14.032 2°55.479 4.1 279 14.9 100380 46
2010-06-11 07:01:43 51°14.043 2°55.47 3.7 319 14.9 100380 47
2010-06-11 07:01:48 51°14.054 2°55.462 5.2 284 14.9 100380 47
2010-06-11 07:01:53 51°14.066 2°55.454 5.5 27 14.9 100390 45
2010-06-11 07:01:58 51°14.077 2°55.446 4.8 279 14.9 100390 45
2010-06-11 07:02:03 51°14.089 2°55.437 3.9 19 14.9 100390 47
2010-06-11 07:02:08 51°14.1 2°55.428 3.5 277 14.9 100390 47
2010-06-11 07:02:13 51°14.112 2°55.42 5.1 28 14.9 100390 48
2010-06-11 07:02:18 51°14.123 2°55.411 3.4 279 14.9 100390 48
2010-06-11 07:02:23 51°14.135 2°55.403 2.8 23 15 100390 48
2010-06-11 07:02:28 51°14.147 2°55.394 3.8 277 15 100390 48
2010-06-11 07:02:33 51°14.158 2°55.385 4.1 320 14.9 100390 45
2010-06-11 07:02:38 51°14.169 2°55.375 4.7 285 14.9 100390 45
2010-06-11 07:02:43 51°14.181 2°55.365 4.5 21 14.9 100390 48
2010-06-11 07:02:48 51°14.192 2°55.355 5.4 281 14.9 100390 48
2010-06-11 07:02:52 51°14.201 2°55.347 5.2 242 15 100380 45
2010-06-11 07:02:58 51°14.215 2°55.335 5.2 279 15 100380 45
2010-06-11 07:03:03 51°14.226 2°55.326 5.6 22 15 100390 45
2010-06-11 07:03:08 51°14.238 2°55.316 5.9 281 15 100390 45
2010-06-11 07:03:13 51°14.249 2°55.305 6.6 22 14.9 100390 48
2010-06-11 07:03:18 51°14.26 2°55.295 6.3 284 14.9 100390 48
2010-06-11 07:03:23 51°14.271 2°55.285 6.8 26 14.9 100380 46
2010-06-11 07:03:28 51°14.282 2°55.274 7.4 283 14.9 100380 46
2010-06-11 07:03:33 51°14.293 2°55.263 6.4 247 14.9 100380 46
2010-06-11 07:03:38 51°14.304 2°55.253 6.2 284 14.9 100380 46
2010-06-11 07:03:43 51°14.316 2°55.242 6.1 22 14.9 100380 48
2010-06-11 07:03:48 51°14.327 2°55.231 5.6 285 14.9 100380 48
2010-06-11 07:03:53 51°14.338 2°55.221 5.6 22 14.9 100380 46
2010-06-11 07:03:58 51°14.349 2°55.21 6.2 279 14.9 100380 46
2010-06-11 07:04:03 51°14.36 2°55.2 7 23 14.9 100380 48
2010-06-11 07:04:08 51°14.37 2°55.189 6.7 278 14.9 100380 48
2010-06-11 07:04:13 51°14.382 2°55.178 6.6 29 14.9 100380 48
2010-06-11 07:04:18 51°14.393 2°55.167 7.3 279 14.9 100380 48
2010-06-11 07:04:23 51°14.405 2°55.156 7.7 21 15 100380 45
2010-06-11 07:04:28 51°14.417 2°55.144 6.7 284 15 100380 45
2010-06-11 07:04:33 51°14.429 2°55.132 7.3 27 14.9 100380 45
2010-06-11 07:04:38 51°14.441 2°55.12 8.1 283 14.9 100380 45
2010-06-11 07:04:43 51°14.453 2°55.108 8.4 21 15 100380 46
2010-06-11 07:04:48 51°14.466 2°55.096 7.3 279 15 100380 46
2010-06-11 07:04:53 51°14.478 2°55.085 7.1 27 14.9 100380 46
2010-06-11 07:04:58 51°14.491 2°55.072 7.4 285 14.9 100380 46
2010-06-11 07:05:03 51°14.504 2°55.059 7.5 21 15 100370 46
2010-06-11 07:05:08 51°14.517 2°55.045 7.5 279 15 100370 46
2010-06-11 07:05:12 51°14.527 2°55.033 6.8 22 15 100380 47
2010-06-11 07:05:18 51°14.542 2°55.015 7.4 284 15 100380 47
2010-06-11 07:05:23 51°14.554 2°54.997 8.1 22 14.9 100380 46
2010-06-11 07:05:28 51°14.566 2°54.978 8.6 277 14.9 100380 46
2010-06-11 07:05:32 51°14.574 2°54.962 8.6 22 14.9 100370 47
2010-06-11 07:05:37 51°14.584 2°54.941 9.7 284 14.9 100370 47
2010-06-11 07:05:43 51°14.596 2°54.915 10.2 27 15 100380 48
2010-06-11 07:05:47 51°14.603 2°54.897 10.3 281 15 100380 48
2010-06-11 07:05:52 51°14.612 2°54.873 9.4 20 15 100350 46
2010-06-11 07:05:58 51°14.621 2°54.844 9.6 282 15 100350 46
2010-06-11 07:06:03 51°14.629 2°54.819 9.3 19 14.9 100360 47
2010-06-11 07:06:07 51°14.635 2°54.799 11.3 282 14.9 100360 47
2010-06-11 07:06:12 51°14.641 2°54.773 11.4 23 14.9 100350 47
2010-06-11 07:06:18 51°14.647 2°54.741 13.1 282 14.9 100350 47
2010-06-11 07:06:22 51°14.65 2°54.72 11.7 318 15 100360 48
2010-06-11 07:06:28 51°14.653 2°54.686 12 287 15 100360 48
2010-06-11 07:06:32 51°14.654 2°54.664 11.7 321 15 100360 46
2010-06-11 07:06:38 51°14.653 2°54.63 11.1 285 15 100360 46
2010-06-11 07:06:42 51°14.652 2°54.608 11.8 325 14.9 100360 46
2010-06-11 07:06:47 51°14.648 2°54.58 13.2 282 14.9 100360 46
2010-06-11 07:06:53 51°14.64 2°54.547 11.4 329 14.9 100360 47
2010-06-11 07:06:58 51°14.633 2°54.521 11.6 279 14.9 100360 47
2010-06-11 07:07:02 51°14.626 2°54.5 12.2 332 14.9 100360 45
2010-06-11 07:07:07 51°14.616 2°54.475 12.2 285 14.9 100360 45
2010-06-11 07:07:12 51°14.605 2°54.45 11.7 332 14.9 100360 46
2010-06-11 07:07:18 51°14.591 2°54.423 11.4 277 14.9 100360 46
2010-06-11 07:07:23 51°14.577 2°54.402 11.1 334 14.9 100370 46
2010-06-11 07:07:27 51°14.567 2°54.383 11.9 278 14.9 100370 46
2010-06-11 07:07:32 51°14.554 2°54.36 12.7 334 14.9 100380 46
2010-06-11 07:07:38 51°14.539 2°54.332 12.2 277 14.9 100380 46
2010-06-11 07:07:43 51°14.526 2°54.31 12.2 334 14.9 100380 46
2010-06-11 07:07:47 51°14.516 2°54.291 12.7 278 14.9 100380 46
2010-06-11 07:07:52 51°14.503 2°54.267 11.4 333 14.8 100370 47
2010-06-11 07:07:58 51°14.488 2°54.24 11.6 285 14.8 100370 47
2010-06-11 07:08:03 51°14.475 2°54.216 12.5 333 14.8 100380 46
2010-06-11 07:08:07 51°14.465 2°54.197 11.6 278 14.8 100380 46
2010-06-11 07:08:13 51°14.45 2°54.169 12 331 14.8 100370 47
2010-06-11 07:08:18 51°14.438 2°54.143 12.2 279 14.8 100370 47
2010-06-11 07:08:22 51°14.429 2°54.123 12.6 334 14.8 100380 47
2010-06-11 07:08:27 51°14.416 2°54.1 11.6 280 14.8 100380 47
2010-06-11 07:08:33 51°14.402 2°54.069 12 331 14.8 100370 46
2010-06-11 07:08:38 51°14.39 2°54.045 11.9 285 14.8 100370 46
2010-06-11 07:08:42 51°14.381 2°54.024 14.2 331 14.8 100380 47
2010-06-11 07:08:47 51°14.37 2°53.999 13.3 283 14.8 100380 47
2010-06-11 07:08:53 51°14.356 2°53.968 12.6 331 14.8 100380 47
2010-06-11 07:08:58 51°14.344 2°53.944 11.9 281 14.8 100380 47
2010-06-11 07:09:02 51°14.335 2°53.923 11.9 332 14.8 100380 46
2010-06-11 07:09:07 51°14.324 2°53.898 11.4 283 14.8 100380 46
2010-06-11 07:09:13 51°14.31 2°53.868 12.5 333 14.8 100380 47
2010-06-11 07:09:18 51°14.3 2°53.841 13.3 287 14.8 100380 47
2010-06-11 07:09:22 51°14.29 2°53.822 12.8 333 14.7 100380 47
2010-06-11 07:09:27 51°14.279 2°53.795 12.4 284 14.7 100380 47
2010-06-11 07:09:32 51°14.267 2°53.771 13.4 333 14.7 100380 46
2010-06-11 07:09:38 51°14.254 2°53.739 14.3 283 14.7 100380 46
2010-06-11 07:09:42 51°14.244 2°53.72 13.5 333 14.7 100390 44
2010-06-11 07:09:47 51°14.233 2°53.693 12.7 282 14.7 100390 44
2010-06-11 07:09:52 51°14.22 2°53.668 12.5 334 14.7 100380 46
2010-06-11 07:09:58 51°14.207 2°53.637 12.7 279 14.7 100380 46
2010-06-11 07:10:02 51°14.197 2°53.617 13.5 333 14.6 100390 46
2010-06-11 07:10:07 51°14.186 2°53.591 13.6 278 14.6 100390 46
2010-06-11 07:10:12 51°14.175 2°53.565 12.8 332 14.6 100380 46
2010-06-11 07:10:18 51°14.16 2°53.534 13.1 278 14.6 100380 46
2010-06-11 07:10:23 51°14.149 2°53.508 10.9 332 14.6 100380 46
2010-06-11 07:10:27 51°14.14 2°53.488 12.1 278 14.6 100380 46
2010-06-11 07:10:32 51°14.128 2°53.462 11.9 335 14.6 100380 46
2010-06-11 07:10:38 51°14.114 2°53.431 12 285 14.6 100380 46
2010-06-11 07:10:42 51°14.104 2°53.411 11 336 14.6 100380 45
2010-06-11 07:10:47 51°14.094 2°53.383 11.3 281 14.6 100380 45
2010-06-11 07:10:52 51°14.081 2°53.359 13.6 333 14.6 100390 47
2010-06-11 07:10:58 51°14.069 2°53.326 12.4 278 14.6 100390 47
2010-06-11 07:11:03 51°14.057 2°53.301 11.8 333 14.6 100380 47
2010-06-11 07:11:07 51°14.047 2°53.28 13.4 279 14.6 100380 47
2010-06-11 07:11:13 51°14.034 2°53.248 12.7 331 14.6 100390 46
2010-06-11 07:11:18 51°14.022 2°53.223 13.1 278 14.6 100390 46
2010-06-11 07:11:22 51°14.013 2°53.202 12.5 334 14.6 100380 46
2010-06-11 07:11:27 51°14.001 2°53.175 10.8 283 14.6 100380 46
2010-06-11 07:11:32 51°13.989 2°53.15 14.5 335 14.6 100380 47
2010-06-11 07:11:38 51°13.976 2°53.118 13.2 278 14.6 100380 47
2010-06-11 07:11:42 51°13.965 2°53.099 12.5 333 14.6 100390 47
2010-06-11 07:11:47 51°13.955 2°53.071 12.6 284 14.6 100390 47
2010-06-11 07:11:52 51°13.943 2°53.047 14.1 335 14.6 100380 46
2010-06-11 07:11:58 51°13.929 2°53.015 13.1 285 14.6 100380 46
2010-06-11 07:12:02 51°13.92 2°52.994 15.1 335 14.5 100390 46
2010-06-11 07:12:07 51°13.908 2°52.968 12 281 14.5 100390 46
2010-06-11 07:12:12 51°13.896 2°52.943 13.3 334 14.5 100380 45
2010-06-11 07:12:18 51°13.883 2°52.912 13.7 282 14.5 100380 45
2010-06-11 07:12:23 51°13.871 2°52.886 15 335 14.5 100380 44
2010-06-11 07:12:27 51°13.862 2°52.865 14.3 285 14.5 100380 44
2010-06-11 07:12:32 51°13.85 2°52.84 12.4 335 14.5 100390 46
2010-06-11 07:12:38 51°13.836 2°52.808 12.8 285 14.5 100390 46
2010-06-11 07:12:43 51°13.824 2°52.783 13.4 334 14.5 100380 46
2010-06-11 07:12:47 51°13.815 2°52.762 14.1 280 14.5 100380 46
2010-06-11 07:12:52 51°13.803 2°52.736 14.2 335 14.4 100380 46
2010-06-11 07:12:58 51°13.789 2°52.705 12.9 284 14.4 100380 46
2010-06-11 07:13:02 51°13.779 2°52.685 13.9 333 14.5 100390 46
2010-06-11 07:13:08 51°13.766 2°52.653 14 282 14.5 100390 46
2010-06-11 07:13:13 51°13.754 2°52.629 14.5 333 14.5 100390 47
2010-06-11 07:13:18 51°13.742 2°52.602 14.4 286 14.5 100390 47
2010-06-11 07:13:22 51°13.734 2°52.581 13.3 332 14.5 100390 47
2010-06-11 07:13:27 51°13.721 2°52.557 12.1 282 14.5 100390 47
2010-06-11 07:13:33 51°13.707 2°52.525 13.5 334 14.4 100380 46
2010-06-11 07:13:38 51°13.696 2°52.499 13 282 14.4 100380 46
2010-06-11 07:13:42 51°13.687 2°52.478 13.6 332 14.4 100390 47
2010-06-11 07:13:47 51°13.675 2°52.453 13.1 280 14.4 100390 47
2010-06-11 07:13:53 51°13.661 2°52.422 14.9 334 14.4 100390 45
2010-06-11 07:13:58 51°13.649 2°52.395 15.9 279 14.4 100390 45
2010-06-11 07:14:02 51°13.64 2°52.375 13.1 335 14.5 100400 46
2010-06-11 07:14:08 51°13.626 2°52.344 13.9 283 14.5 100400 46
2010-06-11 07:14:12 51°13.616 2°52.324 13.1 334 14.4 100390 47
2010-06-11 07:14:18 51°13.602 2°52.293 13.8 283 14.4 100390 47
2010-06-11 07:14:22 51°13.593 2°52.272 14.3 336 14.4 100390 47
2010-06-11 07:14:28 51°13.578 2°52.242 13.4 282 14.4 100390 47
2010-06-11 07:14:32 51°13.569 2°52.22 11.5 333 14.4 100370 45
2010-06-11 07:14:37 51°13.557 2°52.195 12.7 286 14.4 100370 45
2010-06-11 07:14:43 51°13.543 2°52.163 13.4 334 14.4 100390 45
2010-06-11 07:14:48 51°13.532 2°52.138 16.1 283 14.4 100390 45
2010-06-11 07:14:52 51°13.522 2°52.118 15.8 335 14.4 100390 46
2010-06-11 07:14:58 51°13.508 2°52.086 14.7 282 14.4 100390 46
2010-06-11 07:15:03 51°13.497 2°52.06 14.8 332 14.4 100390 45
2010-06-11 07:15:08 51°13.485 2°52.035 15.8 283 14.4 100390 45
2010-06-11 07:15:12 51°13.476 2°52.014 13.8 334 14.4 100390 46
2010-06-11 07:15:18 51°13.463 2°51.985 13.6 282 14.4 100390 46
2010-06-11 07:15:22 51°13.453 2°51.966 13.6 335 14.4 100390 46
2010-06-11 07:15:28 51°13.44 2°51.938 13.8 277 14.4 100390 46
2010-06-11 07:15:32 51°13.432 2°51.92 13.6 335 14.4 100390 47
2010-06-11 07:15:38 51°13.419 2°51.893 13.4 285 14.4 100390 47
2010-06-11 07:15:42 51°13.411 2°51.876 13 333 14.3 100400 46
2010-06-11 07:15:47 51°13.401 2°51.854 14.1 282 14.3 100400 46
2010-06-11 07:15:52 51°13.391 2°51.833 12.2 335 14.3 100390 45
2010-06-11 07:15:58 51°13.38 2°51.809 13.8 281 14.3 100390 45
2010-06-11 07:16:03 51°13.371 2°51.789 12.2 333 14.3 100390 45
2010-06-11 07:16:07 51°13.364 2°51.773 12.6 284 14.3 100390 45
2010-06-11 07:16:12 51°13.355 2°51.754 12.5 334 14.3 100390 47
2010-06-11 07:16:18 51°13.345 2°51.731 11.7 280 14.3 100390 47
2010-06-11 07:16:22 51°13.338 2°51.716 11 333 14.3 100390 47
2010-06-11 07:16:28 51°13.327 2°51.694 12.2 287 14.3 100390 47
2010-06-11 07:16:32 51°13.32 2°51.68 11.4 335 14.3 100400 47
2010-06-11 07:16:38 51°13.31 2°51.658 10.3 287 14.3 100400 47
2010-06-11 07:16:42 51°13.304 2°51.644 12.2 334 14.3 100400 46
2010-06-11 07:16:48 51°13.294 2°51.621 10 281 14.3 100400 46
2010-06-11 07:16:52 51°13.287 2°51.607 9.8 331 14.3 100400 45
2010-06-11 07:16:57 51°13.279 2°51.589 11 283 14.3 100400 45
2010-06-11 07:17:03 51°13.27 2°51.567 12.8 331 14.3 100400 46
2010-06-11 07:17:08 51°13.261 2°51.55 12 280 14.3 100400 46
2010-06-11 07:17:12 51°13.255 2°51.536 13.5 332 14.3 100400 45
2010-06-11 07:17:18 51°13.245 2°51.515 13.8 286 14.3 100400 45
2010-06-11 07:17:22 51°13.239 2°51.5 12.6 332 14.3 100400 45
2010-06-11 07:17:28 51°13.23 2°51.482 12.9 279 14.3 100400 45
2010-06-11 07:17:32 51°13.224 2°51.469 11.8 332 14.3 100400 45
2010-06-11 07:17:38 51°13.216 2°51.452 11 277 14.3 100400 45
2010-06-11 07:17:42 51°13.211 2°51.441 9.6 333 14.3 100400 46
2010-06-11 07:17:47 51°13.205 2°51.428 9.5 280 14.3 100400 46
2010-06-11 07:17:52 51°13.201 2°51.414 9.6 329 14.2 100400 47
2010-06-11 07:17:58 51°13.195 2°51.399 9.5 279 14.2 100400 47
2010-06-11 07:18:02 51°13.192 2°51.389 9.7 326 14.3 100400 47
2010-06-11 07:18:07 51°13.189 2°51.377 10.3 278 14.3 100400 47
2010-06-11 07:18:13 51°13.185 2°51.363 9.9 322 14.3 100410 47
2010-06-11 07:18:18 51°13.183 2°51.351 9.6 284 14.3 100410 47
2010-06-11 07:18:23 51°13.182 2°51.34 9.1 318 14.3 100410 47
2010-06-11 07:18:27 51°13.181 2°51.331 8.3 284 14.3 100410 47
2010-06-11 07:18:32 51°13.181 2°51.32 8.4 27 14.3 100410 46
2010-06-11 07:18:38 51°13.181 2°51.307 8.9 281 14.3 100410 46
2010-06-11 07:18:43 51°13.182 2°51.297 9.9 23 14.3 100400 47
2010-06-11 07:18:47 51°13.182 2°51.289 8.8 285 14.3 100400 47
2010-06-11 07:18:52 51°13.184 2°51.28 8.4 22 14.3 100400 47
2010-06-11 07:18:57 51°13.185 2°51.272 9 278 14.3 100400 47
2010-06-11 07:19:03 51°13.188 2°51.262 7.7 23 14.3 100390 47
2010-06-11 07:19:08 51°13.19 2°51.254 9.9 278 14.3 100390 47
2010-06-11 07:19:12 51°13.193 2°51.249 8.4 249 14.3 100400 46
2010-06-11 07:19:17 51°13.196 2°51.242 8.5 278 14.3 100400 46
2010-06-11 07:19:23 51°13.2 2°51.235 8.8 255 14.3 100390 46
2010-06-11 07:19:28 51°13.204 2°51.23 9.3 284 14.3 100390 46
2010-06-11 07:19:32 51°13.208 2°51.227 6.8 262 14.3 100400 47
2010-06-11 07:19:37 51°13.212 2°51.224 4.9 284 14.3 100400 47
2010-06-11 07:19:42 51°13.217 2°51.221 6.4 270 14.3 100400 47
2010-06-11 07:19:48 51°13.224 2°51.22 6.4 74 14.3 100400 47
2010-06-11 07:19:52 51°13.228 2°51.22 5.6 21 14.2 100420 47
2010-06-11 07:19:58 51°13.234 2°51.222 5.2 76 14.2 100420 47
2010-06-11 07:20:03 51°13.238 2°51.224 4.4 23 14.2 100420 45
2010-06-11 07:20:07 51°13.242 2°51.227 4.9 81 14.2 100420 45
2010-06-11 07:20:12 51°13.246 2°51.232 4.8 23 14.2 100430 46
2010-06-11 07:20:18 51°13.25 2°51.239 4.7 80 14.2 100430 46
2010-06-11 07:20:23 51°13.254 2°51.245 4.8 27 14.2 100440 47
2010-06-11 07:20:27 51°13.257 2°51.251 5.6 76 14.2 100440 47
2010-06-11 07:20:32 51°13.262 2°51.259 4.1 19 14.2 100430 45
2010-06-11 07:20:38 51°13.268 2°51.27 5.1 80 14.2 100430 45
2010-06-11 07:20:43 51°13.274 2°51.279 4.6 23 14.2 100430 47
2010-06-11 07:20:47 51°13.279 2°51.287 5.7 81 14.2 100430 47
2010-06-11 07:20:52 51°13.286 2°51.297 5.4 27 14.2 100430 46
2010-06-11 07:20:58 51°13.295 2°51.31 5.2 76 14.2 100430 46
2010-06-11 07:21:03 51°13.302 2°51.32 5 25 14.2 100440 45
2010-06-11 07:21:07 51°13.309 2°51.329 4.2 76 14.2 100440 45
2010-06-11 07:21:12 51°13.316 2°51.341 3.9 23 14.2 100440 45
2010-06-11 07:21:17 51°13.324 2°51.353 4.2 81 14.2 100440 45
2010-06-11 07:21:23 51°13.331 2°51.369 3.7 20 14.1 100430 45
2010-06-11 07:21:28 51°13.337 2°51.382 4.5 77 14.1 100430 45
2010-06-11 07:21:32 51°13.341 2°51.393 4.1 23 14.2 100440 48
2010-06-11 07:21:37 51°13.347 2°51.405 3.6 81 14.2 100440 48
2010-06-11 07:21:42 51°13.351 2°51.418 3.3 25 14.1 100430 48
2010-06-11 07:21:48 51°13.357 2°51.432 3.6 75 14.1 100430 48
2010-06-11 07:21:52 51°13.361 2°51.441 5 23 14.1 100440 45
2010-06-11 07:21:57 51°13.366 2°51.45 4.3 81 14.1 100440 45
2010-06-11 07:22:02 51°13.371 2°51.457 5.4 27 14.1 100430 48
2010-06-11 07:22:07 51°13.377 2°51.463 5.6 75 14.1 100430 48
2010-06-11 07:22:12 51°13.382 2°51.467 6 23 14.2 100430 47
2010-06-11 07:22:18 51°13.388 2°51.472 6.1 283 14.2 100430 47
2010-06-11 07:22:22 51°13.392 2°51.473 6.6 269 14.2 100430 45
2010-06-11 07:22:27 51°13.397 2°51.475 5.1 284 14.2 100430 45
2010-06-11 07:22:32 51°13.401 2°51.476 5.5 267 14.2 100440 46
2010-06-11 07:22:38 51°13.407 2°51.476 7.3 86 14.2 100440 46
2010-06-11 07:22:43 51°13.411 2°51.476 6.1 267 14.2 100430 48
2010-06-11 07:22:47 51°13.414 2°51.476 6.3 283 14.2 100430 48
2010-06-11 07:22:52 51°13.418 2°51.475 5.5 262 14.2 100430 44
2010-06-11 07:22:58 51°13.422 2°51.474 5.2 280 14.2 100430 44
2010-06-11 07:23:03 51°13.424 2°51.473 4.5 262 14.2 100430 43
2010-06-11 07:23:07 51°13.426 2°51.471 5.7 278 14.2 100430 43
2010-06-11 07:23:12 51°13.428 2°51.469 5.9 260 14.2 100410 44
2010-06-11 07:23:18 51°13.429 2°51.467 6.7 284 14.2 100410 44
2010-06-11 07:23:23 51°13.429 2°51.465 5.2 263 14.2 100410 45
2010-06-11 07:23:27 51°13.429 2°51.464 6.4 283 14.2 100410 45
2010-06-11 07:23:32 51°13.429 2°51.462 6.7 259 14.2 100420 45
2010-06-11 07:23:37 51°13.429 2°51.461 7.2 279 14.2 100420 45
2010-06-11 07:23:43 51°13.428 2°51.459 7.3 255 14.2 100420 47
2010-06-11 07:23:47 51°13.428 2°51.458 8.8 282 14.2 100420 47
2010-06-11 07:23:53 51°13.428 2°51.457 8.3 257 14.2 100420 47
2010-06-11 07:23:58 51°13.427 2°51.456 8.3 279 14.2 100420 47
2010-06-11 07:24:02 51°13.427 2°51.455 7.2 258 14.2 100430 45
2010-06-11 07:24:07 51°13.426 2°51.454 9.3 282 14.2 100430 45
2010-06-11 07:24:13 51°13.426 2°51.453 5.9 260 14.2 100430 45
2010-06-11 07:24:18 51°13.425 2°51.451 7.5 281 14.2 100430 45
2010-06-11 07:24:22 51°13.425 2°51.45 7.4 258 14.2 100430 46
2010-06-11 07:24:27 51°13.424 2°51.448 7.3 280 14.2 100430 46
2010-06-11 07:24:33 51°13.423 2°51.447 6.9 260 14.2 100420 47
2010-06-11 07:24:38 51°13.423 2°51.446 6.8 285 14.2 100420 47
2010-06-11 07:24:42 51°13.422 2°51.445 7.6 260 14.2 100420 47
2010-06-11 07:24:47 51°13.422 2°51.444 6.5 285 14.2 100420 47
2010-06-11 07:24:53 51°13.421 2°51.443 9.4 259 14.2 100430 48
2010-06-11 07:24:58 51°13.42 2°51.442 8 278 14.2 100430 48
2010-06-11 07:25:02 51°13.42 2°51.441 7.3 258 14.2 100420 46
2010-06-11 07:25:07 51°13.419 2°51.44 6.8 285 14.2 100420 46
2010-06-11 07:25:12 51°13.419 2°51.44 7.6 259 14.2 100410 45
2010-06-11 07:25:18 51°13.418 2°51.439 6.2 281 14.2 100410 45
2010-06-11 07:25:22 51°13.417 2°51.438 7.1 259 14.1 100420 47
2010-06-11 07:25:27 51°13.417 2°51.437 8.2 279 14.1 100420 47
2010-06-11 07:25:32 51°13.416 2°51.436 6.4 261 14.1 100420 45
2010-06-11 07:25:38 51°13.415 2°51.435 7.1 278 14.1 100420 45
2010-06-11 07:25:42 51°13.415 2°51.434 6.7 259 14.1 100420 44
2010-06-11 07:25:47 51°13.414 2°51.434 6.7 283 14.1 100420 44
2010-06-11 07:25:52 51°13.413 2°51.433 7.2 261 14.1 100410 45
2010-06-11 07:25:58 51°13.413 2°51.432 8.9 283 14.1 100410 45
2010-06-11 07:26:03 51°13.412 2°51.431 8.5 261 14.1 100410 47
2010-06-11 07:26:07 51°13.411 2°51.431 8.1 281 14.1 100410 47
2010-06-11 07:26:12 51°13.411 2°51.43 6.7 261 14.1 100420 45
2010-06-11 07:26:18 51°13.41 2°51.429 7.6 284 14.1 100420 45
2010-06-11 07:26:23 51°13.409 2°51.428 6.7 262 14.1 100420 47
2010-06-11 07:26:27 51°13.409 2°51.428 7.4 285 14.1 100420 47
2010-06-11 07:26:32 51°13.408 2°51.427 5.3 263 14.1 100410 47
2010-06-11 07:26:38 51°13.407 2°51.426 5.1 278 14.1 100410 47
2010-06-11 07:26:42 51°13.406 2°51.426 6.1 261 14 100430 45
2010-06-11 07:26:47 51°13.406 2°51.425 5.5 285 14 100430 45
2010-06-11 07:26:52 51°13.405 2°51.424 5.6 266 14 100430 44
2010-06-11 07:26:58 51°13.404 2°51.423 4.9 283 14 100430 44
2010-06-11 07:27:03 51°13.403 2°51.423 5.4 264 14 100430 45
2010-06-11 07:27:07 51°13.403 2°51.422 6.3 283 14 100430 45
2010-06-11 07:27:13 51°13.402 2°51.421 6 262 14 100440 47
2010-06-11 07:27:18 51°13.401 2°51.42 6.5 285 14 100440 47
2010-06-11 07:27:22 51°13.4 2°51.42 6.1 264 14 100430 48
2010-06-11 07:27:27 51°13.399 2°51.419 6.6 277 14 100430 48
2010-06-11 07:27:32 51°13.398 2°51.419 6.2 263 14 100430 46
2010-06-11 07:27:38 51°13.397 2°51.418 6.9 280 14 100430 46
2010-06-11 07:27:42 51°13.397 2°51.418 6 263 14 100430 46
2010-06-11 07:27:47 51°13.396 2°51.417 5.4 282 14 100430 46
2010-06-11 07:27:52 51°13.395 2°51.417 7.2 267 14 100440 47
2010-06-11 07:27:57 51°13.394 2°51.416 6.7 280 14 100440 47
2010-06-11 07:28:02 51°13.393 2°51.415 5.6 266 14 100440 44
2010-06-11 07:28:08 51°13.392 2°51.415 7.4 280 14 100440 44
2010-06-11 07:28:12 51°13.391 2°51.414 6.6 267 14 100440 46
2010-06-11 07:28:18 51°13.39 2°51.414 7 284 14 100440 46
2010-06-11 07:28:22 51°13.389 2°51.413 6.5 269 14 100440 45
2010-06-11 07:28:28 51°13.388 2°51.413 6.5 283 14 100440 45
2010-06-11 07:28:32 51°13.388 2°51.412 6.6 267 13.9 100440 44
2010-06-11 07:28:38 51°13.386 2°51.411 6 277 13.9 100440 44
2010-06-11 07:28:42 51°13.386 2°51.411 8.1 270 14 100440 44
2010-06-11 07:28:48 51°13.385 2°51.41 7.4 283 14 100440 44
2010-06-11 07:28:52 51°13.384 2°51.409 7.6 270 14 100440 47
2010-06-11 07:28:58 51°13.383 2°51.408 6.5 81 14 100440 47
2010-06-11 07:29:02 51°13.382 2°51.408 7.4 270 13.9 100450 46
2010-06-11 07:29:07 51°13.382 2°51.407 8.2 284 13.9 100450 46
2010-06-11 07:29:13 51°13.38 2°51.406 6.9 266 14 100440 45
2010-06-11 07:29:18 51°13.38 2°51.406 7.6 279 14 100440 45
2010-06-11 07:29:22 51°13.379 2°51.405 7.1 12 14 100450 45
2010-06-11 07:29:27 51°13.378 2°51.405 6.8 288 14 100450 45
2010-06-11 07:29:32 51°13.377 2°51.404 7.6 29 14 100440 48
2010-06-11 07:29:38 51°13.376 2°51.403 8.2 80 14 100440 48
2010-06-11 07:29:42 51°13.376 2°51.402 7.5 25 14 100450 45
2010-06-11 07:29:47 51°13.375 2°51.402 7.3 80 14 100450 45
2010-06-11 07:29:52 51°13.374 2°51.401 8.3 22 14 100430 46
2010-06-11 07:29:58 51°13.373 2°51.4 8.2 79 14 100430 46
2010-06-11 07:30:02 51°13.373 2°51.399 8.6 270 14 100440 48
2010-06-11 07:30:08 51°13.372 2°51.398 9.3 280 14 100440 48
2010-06-11 07:30:12 51°13.372 2°51.398 7.7 270 14 100450 45
2010-06-11 07:30:17 51°13.371 2°51.397 9.3 284 14 100450 45
2010-06-11 07:30:23 51°13.37 2°51.396 8.1 269 14 100450 41
2010-06-11 07:30:28 51°13.37 2°51.396 8 278 14 100450 41
2010-06-11 07:30:32 51°13.369 2°51.395 7.8 270 14 100450 46
2010-06-11 07:30:37 51°13.368 2°51.395 7 281 14 100450 46
2010-06-11 07:30:43 51°13.368 2°51.394 8.2 269 14 100450 44
2010-06-11 07:30:48 51°13.367 2°51.393 8.3 278 14 100450 44
2010-06-11 07:30:52 51°13.366 2°51.392 6.8 268 14 100450 45
2010-06-11 07:30:58 51°13.366 2°51.392 8.2 283 14 100450 45
2010-06-11 07:31:02 51°13.365 2°51.391 7.1 268 13.9 100440 43
2010-06-11 07:31:07 51°13.365 2°51.391 7.8 286 13.9 100440 43
2010-06-11 07:31:12 51°13.364 2°51.39 7.6 268 13.9 100450 47
2010-06-11 07:31:18 51°13.363 2°51.389 7.9 285 13.9 100450 47
2010-06-11 07:31:23 51°13.363 2°51.389 5.7 264 13.9 100460 47
2010-06-11 07:31:27 51°13.362 2°51.388 5.9 285 13.9 100460 47
2010-06-11 07:31:32 51°13.362 2°51.387 6.1 265 13.9 100450 46
2010-06-11 07:31:38 51°13.362 2°51.387 6.4 283 13.9 100450 46
2010-06-11 07:31:43 51°13.362 2°51.386 6.1 263 13.9 100440 47
2010-06-11 07:31:47 51°13.362 2°51.386 6.2 284 13.9 100440 47
2010-06-11 07:31:52 51°13.363 2°51.384 7.6 260 14 100450 46
2010-06-11 07:31:58 51°13.364 2°51.382 8.6 284 14 100450 46
2010-06-11 07:32:03 51°13.365 2°51.38 9.9 256 14 100450 45
2010-06-11 07:32:07 51°13.366 2°51.377 9.6 283 14 100450 45
2010-06-11 07:32:12 51°13.368 2°51.374 8.6 252 13.9 100450 46
2010-06-11 07:32:18 51°13.369 2°51.37 9.7 282 13.9 100450 46
2010-06-11 07:32:23 51°13.371 2°51.366 7.7 250 13.9 100450 46
2010-06-11 07:32:28 51°13.372 2°51.361 8.5 278 13.9 100450 46
2010-06-11 07:32:32 51°13.373 2°51.357 9 21 13.9 100440 47
2010-06-11 07:32:37 51°13.374 2°51.352 9.4 285 13.9 100440 47
2010-06-11 07:32:43 51°13.375 2°51.345 8.9 23 14 100430 47
2010-06-11 07:32:48 51°13.376 2°51.339 8.9 285 14 100430 47
2010-06-11 07:32:52 51°13.376 2°51.335 8 20 14 100430 46
2010-06-11 07:32:57 51°13.376 2°51.328 8.8 279 14 100430 46
2010-06-11 07:33:03 51°13.377 2°51.32 8.3 29 14 100410 45
2010-06-11 07:33:08 51°13.377 2°51.313 8.2 280 14 100410 45
2010-06-11 07:33:12 51°13.376 2°51.307 8.8 25 14 100400 47
2010-06-11 07:33:18 51°13.375 2°51.298 7.2 283 14 100400 47
2010-06-11 07:33:22 51°13.375 2°51.292 9.6 324 14 100400 47
2010-06-11 07:33:27 51°13.373 2°51.285 9.6 280 14 100400 47
2010-06-11 07:33:32 51°13.372 2°51.277 7.8 328 14 100420 45
2010-06-11 07:33:38 51°13.369 2°51.268 8.7 280 14 100420 45
2010-06-11 07:33:43 51°13.367 2°51.261 9.1 331 14 100410 45
2010-06-11 07:33:47 51°13.365 2°51.255 8.8 279 14 100410 45
2010-06-11 07:33:52 51°13.362 2°51.248 10.1 338 14 100420 47
2010-06-11 07:33:58 51°13.358 2°51.24 9.3 278 14 100420 47
2010-06-11 07:34:03 51°13.354 2°51.234 10.5 345 14 100430 47
2010-06-11 07:34:07 51°13.351 2°51.23 9.4 278 14 100430 47
2010-06-11 07:34:12 51°13.347 2°51.225 8.9 348 14 100440 45
2010-06-11 07:34:18 51°13.341 2°51.22 8.4 349 14 100440 45
2010-06-11 07:34:23 51°13.337 2°51.216 9.2 354 13.9 100430 45
2010-06-11 07:34:27 51°13.333 2°51.214 9 355 13.9 100430 45
2010-06-11 07:34:32 51°13.328 2°51.212 8.8 2 13.9 100420 46
2010-06-11 07:34:37 51°13.323 2°51.21 8.2 2 13.9 100420 46
2010-06-11 07:34:43 51°13.317 2°51.209 8.6 2 13.9 100420 45
2010-06-11 07:34:47 51°13.314 2°51.207 7.3 7 13.9 100420 45
2010-06-11 07:34:51 51°13.31 2°51.207 7.8 6 13.9 100410 46
2010-06-11 07:34:58 51°13.303 2°51.206 8.3 6 13.9 100410 46
2010-06-11 07:35:03 51°13.298 2°51.206 7.8 3 13.9 100420 45
2010-06-11 07:35:07 51°13.293 2°51.206 7.4 4 13.9 100420 45
2010-06-11 07:35:13 51°13.287 2°51.206 7.6 6 13.9 100420 46
2010-06-11 07:35:18 51°13.282 2°51.207 8.3 7 13.9 100420 46
2010-06-11 07:35:22 51°13.278 2°51.207 8.2 7 13.9 100430 45
2010-06-11 07:35:27 51°13.273 2°51.207 8.4 5 13.9 100430 45
2010-06-11 07:35:33 51°13.266 2°51.207 7.1 6 13.9 100430 47
2010-06-11 07:35:38 51°13.261 2°51.207 7.6 7 13.9 100430 47
2010-06-11 07:35:42 51°13.257 2°51.207 7.5 6 13.9 100420 44
2010-06-11 07:35:47 51°13.252 2°51.207 7.7 6 13.9 100420 44
2010-06-11 07:35:53 51°13.245 2°51.207 7.5 5 13.9 100420 45
2010-06-11 07:35:58 51°13.24 2°51.207 5.9 3 13.9 100420 45
2010-06-11 07:36:02 51°13.236 2°51.207 7.9 2 13.9 100440 44
2010-06-11 07:36:07 51°13.231 2°51.207 9.4 1 13.9 100440 44
2010-06-11 07:36:13 51°13.225 2°51.207 9.2 2 13.9 100430 45
2010-06-11 07:36:18 51°13.22 2°51.206 9.4 2 13.9 100430 45
2010-06-11 07:36:22 51°13.216 2°51.206 8.4 1 13.9 100430 45
2010-06-11 07:36:27 51°13.211 2°51.206 7.3 2 13.9 100430 45
2010-06-11 07:36:32 51°13.206 2°51.205 8.9 1 13.9 100430 47
2010-06-11 07:36:38 51°13.2 2°51.205 8.7 2 13.9 100430 47
2010-06-11 07:36:42 51°13.196 2°51.205 8.7 1 13.9 100420 47
2010-06-11 07:36:47 51°13.191 2°51.204 8.7 2 13.9 100420 47
2010-06-11 07:36:52 51°13.186 2°51.204 9.2 1 13.9 100430 47
2010-06-11 07:36:57 51°13.181 2°51.204 9.1 1 13.9 100430 47
2010-06-11 07:37:03 51°13.176 2°51.203 7.9 -999 13.9 100430 46
2010-06-11 07:37:08 51°13.171 2°51.203 8.5 1 13.9 100430 46
2010-06-11 07:37:12 51°13.167 2°51.203 8.9 2 13.9 100430 45
2010-06-11 07:37:17 51°13.162 2°51.202 8.7 3 13.9 100430 45
2010-06-11 07:37:23 51°13.156 2°51.202 9.1 2 13.9 100420 44
2010-06-11 07:37:28 51°13.152 2°51.201 9.8 1 13.9 100420 44
2010-06-11 07:37:32 51°13.148 2°51.201 8.2 2 13.9 100430 45
2010-06-11 07:37:37 51°13.143 2°51.2 7.3 3 13.9 100430 45
2010-06-11 07:37:42 51°13.138 2°51.2 8.2 1 13.9 100430 44
2010-06-11 07:37:48 51°13.133 2°51.199 7.1 1 13.9 100430 44
2010-06-11 07:37:52 51°13.129 2°51.198 10.6 359 13.9 100430 45
2010-06-11 07:37:58 51°13.123 2°51.198 9 2 13.9 100430 45
2010-06-11 07:38:03 51°13.118 2°51.197 9 2 13.9 100430 45
2010-06-11 07:38:08 51°13.113 2°51.197 9.3 2 13.9 100430 45
2010-06-11 07:38:12 51°13.11 2°51.196 8.9 1 13.9 100430 47
2010-06-11 07:38:18 51°13.104 2°51.196 9.4 2 13.9 100430 47
2010-06-11 07:38:23 51°13.099 2°51.195 8.7 1 13.9 100430 46
2010-06-11 07:38:27 51°13.095 2°51.195 9 2 13.9 100430 46
2010-06-11 07:38:32 51°13.091 2°51.194 9.4 360 13.9 100420 45
2010-06-11 07:38:38 51°13.085 2°51.193 9.5 1 13.9 100420 45
2010-06-11 07:38:43 51°13.08 2°51.192 9.5 -999 13.9 100430 46
2010-06-11 07:38:47 51°13.076 2°51.192 9.2 359 13.9 100430 46
2010-06-11 07:38:52 51°13.071 2°51.191 10 1 13.9 100430 45
2010-06-11 07:38:58 51°13.065 2°51.189 9.4 -999 13.9 100430 45
2010-06-11 07:39:03 51°13.059 2°51.188 8.1 358 13.9 100430 44
2010-06-11 07:39:07 51°13.055 2°51.187 9.6 -999 13.9 100430 44
2010-06-11 07:39:12 51°13.05 2°51.186 9.8 360 13.9 100420 45
2010-06-11 07:39:17 51°13.044 2°51.184 9.1 359 13.9 100420 45
2010-06-11 07:39:23 51°13.037 2°51.182 9.8 356 13.8 100420 45
2010-06-11 07:39:28 51°13.032 2°51.179 9.3 355 13.8 100420 45
2010-06-11 07:39:32 51°13.028 2°51.177 9.9 353 13.8 100420 45
2010-06-11 07:39:37 51°13.022 2°51.174 10.4 352 13.8 100420 45
2010-06-11 07:39:43 51°13.016 2°51.171 8.9 353 13.9 100430 46
2010-06-11 07:39:48 51°13.011 2°51.168 9.4 280 13.9 100430 46
2010-06-11 07:39:52 51°13.006 2°51.165 11 349 13.9 100430 46
2010-06-11 07:39:57 51°13.001 2°51.161 9.7 348 13.9 100430 46
2010-06-11 07:40:02 51°12.996 2°51.158 9.1 347 13.9 100430 46
2010-06-11 07:40:08 51°12.99 2°51.153 9.3 279 13.9 100430 46
2010-06-11 07:40:12 51°12.986 2°51.149 9.2 344 13.9 100430 47
2010-06-11 07:40:18 51°12.98 2°51.144 10.8 285 13.9 100430 47
2010-06-11 07:40:22 51°12.976 2°51.14 9.6 345 13.9 100440 46
2010-06-11 07:40:27 51°12.971 2°51.135 10 278 13.9 100440 46
2010-06-11 07:40:32 51°12.967 2°51.131 10.9 344 13.8 100440 46
2010-06-11 07:40:38 51°12.961 2°51.125 9.8 284 13.8 100440 46
2010-06-11 07:40:43 51°12.956 2°51.12 10.5 341 13.8 100440 45
2010-06-11 07:40:47 51°12.952 2°51.116 10.3 284 13.8 100440 45
2010-06-11 07:40:52 51°12.948 2°51.11 8.8 341 13.8 100440 47
2010-06-11 07:40:58 51°12.942 2°51.103 9.4 280 13.8 100440 47
2010-06-11 07:41:03 51°12.938 2°51.098 9.6 340 13.8 100440 45
2010-06-11 07:41:07 51°12.934 2°51.093 9.3 279 13.8 100440 45
2010-06-11 07:41:12 51°12.93 2°51.088 8.8 336 13.8 100440 45
2010-06-11 07:41:18 51°12.925 2°51.08 11 283 13.8 100440 45
2010-06-11 07:41:23 51°12.92 2°51.075 11.2 337 13.8 100450 45
2010-06-11 07:41:27 51°12.917 2°51.069 11.2 284 13.8 100450 45
2010-06-11 07:41:32 51°12.913 2°51.063 11.7 334 13.9 100450 45
2010-06-11 07:41:37 51°12.909 2°51.057 10.4 279 13.9 100450 45
2010-06-11 07:41:43 51°12.904 2°51.049 11.5 333 13.9 100440 44
2010-06-11 07:41:47 51°12.901 2°51.044 11.1 277 13.9 100440 44
2010-06-11 07:41:52 51°12.898 2°51.038 10.2 332 13.8 100440 46
2010-06-11 07:41:57 51°12.894 2°51.031 9.5 282 13.8 100440 46
2010-06-11 07:42:03 51°12.89 2°51.023 10.4 332 13.8 100440 46
2010-06-11 07:42:08 51°12.886 2°51.016 10.6 285 13.8 100440 46
2010-06-11 07:42:12 51°12.884 2°51.011 9.6 329 13.8 100440 45
2010-06-11 07:42:17 51°12.88 2°51.004 10.2 281 13.8 100440 45
2010-06-11 07:42:22 51°12.877 2°50.997 11.3 329 13.8 100450 46
2010-06-11 07:42:28 51°12.873 2°50.988 9.8 282 13.8 100450 46
2010-06-11 07:42:32 51°12.87 2°50.983 11.2 329 13.8 100450 46
2010-06-11 07:42:37 51°12.868 2°50.975 10.6 281 13.8 100450 46
2010-06-11 07:42:42 51°12.864 2°50.968 10.9 328 13.8 100450 46
2010-06-11 07:42:47 51°12.861 2°50.961 10.5 283 13.8 100450 46
2010-06-11 07:42:52 51°12.859 2°50.954 10.1 327 13.8 100460 46
2010-06-11 07:42:58 51°12.855 2°50.945 10.5 279 13.8 100460 46
2010-06-11 07:43:03 51°12.852 2°50.938 10.3 330 13.8 100450 45
2010-06-11 07:43:07 51°12.849 2°50.933 9.1 281 13.8 100450 45
2010-06-11 07:43:12 51°12.846 2°50.925 9.8 333 13.8 100450 46
2010-06-11 07:43:18 51°12.843 2°50.916 10.5 284 13.8 100450 46
2010-06-11 07:43:23 51°12.84 2°50.91 11 332 13.8 100440 46
2010-06-11 07:43:27 51°12.837 2°50.904 9.2 286 13.8 100440 46
2010-06-11 07:43:32 51°12.834 2°50.897 9.9 335 13.8 100450 46
2010-06-11 07:43:37 51°12.831 2°50.89 11.4 282 13.8 100450 46
2010-06-11 07:43:43 51°12.827 2°50.881 9.9 332 13.8 100450 45
2010-06-11 07:43:47 51°12.825 2°50.876 10.1 282 13.8 100450 45
2010-06-11 07:43:52 51°12.822 2°50.868 10.9 332 13.8 100440 45
2010-06-11 07:43:57 51°12.819 2°50.861 9.2 280 13.8 100440 45
2010-06-11 07:44:03 51°12.815 2°50.853 10.1 333 13.8 100450 46
2010-06-11 07:44:07 51°12.812 2°50.847 10.4 279 13.8 100450 46
2010-06-11 07:44:12 51°12.809 2°50.84 10.4 334 13.8 100450 45
2010-06-11 07:44:17 51°12.806 2°50.833 9.7 285 13.8 100450 45
2010-06-11 07:44:22 51°12.803 2°50.826 9.9 332 13.8 100450 44
2010-06-11 07:44:27 51°12.8 2°50.819 9.2 278 13.8 100450 44
2010-06-11 07:44:32 51°12.797 2°50.812 10 333 13.8 100460 46
2010-06-11 07:44:37 51°12.794 2°50.806 9.7 282 13.8 100460 46
2010-06-11 07:44:42 51°12.792 2°50.799 10.5 332 13.8 100460 46
2010-06-11 07:44:48 51°12.788 2°50.791 10.3 279 13.8 100460 46
2010-06-11 07:44:52 51°12.786 2°50.786 9.7 333 13.8 100460 45
2010-06-11 07:44:58 51°12.782 2°50.778 9.2 282 13.8 100460 45
2010-06-11 07:45:02 51°12.78 2°50.773 10.5 332 13.8 100450 45
2010-06-11 07:45:07 51°12.777 2°50.766 10.9 283 13.8 100450 45
2010-06-11 07:45:12 51°12.774 2°50.76 11.1 333 13.8 100450 45
2010-06-11 07:45:18 51°12.771 2°50.752 8.8 279 13.8 100450 45
2010-06-11 07:45:22 51°12.768 2°50.748 9.5 333 13.8 100450 45
2010-06-11 07:45:27 51°12.766 2°50.741 9.5 281 13.8 100450 45
2010-06-11 07:45:32 51°12.763 2°50.735 10.1 334 13.8 100450 46
2010-06-11 07:45:38 51°12.76 2°50.727 11.2 280 13.8 100450 46
2010-06-11 07:45:43 51°12.757 2°50.722 11.3 333 13.8 100460 45
2010-06-11 07:45:47 51°12.755 2°50.717 10.1 285 13.8 100460 45
2010-06-11 07:45:52 51°12.752 2°50.711 9.8 331 13.8 100450 46
2010-06-11 07:45:58 51°12.749 2°50.704 9.7 281 13.8 100450 46
2010-06-11 07:46:03 51°12.746 2°50.698 10.7 331 13.8 100440 45
2010-06-11 07:46:07 51°12.744 2°50.693 9.8 283 13.8 100440 45
2010-06-11 07:46:12 51°12.741 2°50.687 8.8 333 13.8 100450 45
2010-06-11 07:46:18 51°12.738 2°50.679 9 279 13.8 100450 45
2010-06-11 07:46:23 51°12.735 2°50.674 11 335 13.8 100450 46
2010-06-11 07:46:27 51°12.733 2°50.669 10.2 277 13.8 100450 46
2010-06-11 07:46:32 51°12.731 2°50.663 11.7 335 13.8 100450 46
2010-06-11 07:46:38 51°12.727 2°50.656 11.2 285 13.8 100450 46
2010-06-11 07:46:42 51°12.725 2°50.651 9.6 334 13.8 100450 45
2010-06-11 07:46:47 51°12.723 2°50.645 10.4 284 13.8 100450 45
2010-06-11 07:46:53 51°12.719 2°50.637 9.2 332 13.8 100450 46
2010-06-11 07:46:58 51°12.717 2°50.631 9.7 282 13.8 100450 46
2010-06-11 07:47:02 51°12.714 2°50.626 9 333 13.8 100450 45
2010-06-11 07:47:08 51°12.711 2°50.618 10.4 282 13.8 100450 45
2010-06-11 07:47:13 51°12.708 2°50.612 9 325 13.8 100450 47
2010-06-11 07:47:18 51°12.706 2°50.605 9.2 279 13.8 100450 47
2010-06-11 07:47:22 51°12.704 2°50.6 10.1 331 13.8 100450 45
2010-06-11 07:47:27 51°12.701 2°50.593 8.5 283 13.8 100450 45
2010-06-11 07:47:32 51°12.699 2°50.586 10 331 13.8 100460 45
2010-06-11 07:47:38 51°12.696 2°50.578 10 286 13.8 100460 45
2010-06-11 07:47:42 51°12.694 2°50.572 9.4 327 13.8 100460 46
2010-06-11 07:47:47 51°12.692 2°50.565 8.1 284 13.8 100460 46
2010-06-11 07:47:51 51°12.69 2°50.559 8.7 327 13.8 100450 45
2010-06-11 07:47:58 51°12.687 2°50.55 9.4 284 13.8 100450 45
2010-06-11 07:48:03 51°12.684 2°50.543 9.8 330 13.8 100460 45
2010-06-11 07:48:07 51°12.682 2°50.537 9.2 283 13.8 100460 45
2010-06-11 07:48:12 51°12.68 2°50.53 9.3 327 13.8 100460 46
2010-06-11 07:48:17 51°12.678 2°50.523 9.3 284 13.8 100460 46
2010-06-11 07:48:23 51°12.675 2°50.515 10.6 327 13.8 100440 46
2010-06-11 07:48:27 51°12.673 2°50.509 10 284 13.8 100440 46
2010-06-11 07:48:32 51°12.67 2°50.502 10.1 331 13.8 100440 46
2010-06-11 07:48:37 51°12.668 2°50.495 10.1 283 13.8 100440 46
2010-06-11 07:48:42 51°12.666 2°50.488 8.9 331 13.8 100460 46
2010-06-11 07:48:47 51°12.663 2°50.482 8.9 283 13.8 100460 46
2010-06-11 07:48:52 51°12.661 2°50.475 8 333 13.8 100450 47
2010-06-11 07:48:57 51°12.659 2°50.468 8.9 284 13.8 100450 47
2010-06-11 07:49:02 51°12.656 2°50.461 8.5 331 13.8 100440 46
2010-06-11 07:49:07 51°12.654 2°50.454 8.6 278 13.8 100440 46
2010-06-11 07:49:12 51°12.651 2°50.447 9.3 332 13.8 100450 45
2010-06-11 07:49:17 51°12.649 2°50.44 8.8 284 13.8 100450 45
2010-06-11 07:49:22 51°12.646 2°50.434 4.4 334 13.9 100450 45
2010-06-11 07:49:27 51°12.643 2°50.427 11.2 280 13.9 100450 45
2010-06-11 07:49:32 51°12.641 2°50.42 11.6 334 13.9 100450 47
2010-06-11 07:49:38 51°12.638 2°50.411 9.6 287 13.9 100450 47
2010-06-11 07:49:42 51°12.636 2°50.406 11.1 331 13.9 100460 45
2010-06-11 07:49:47 51°12.633 2°50.4 11 278 13.9 100460 45
2010-06-11 07:49:52 51°12.631 2°50.393 11.4 332 13.9 100450 46
2010-06-11 07:49:58 51°12.628 2°50.385 10.3 278 13.9 100450 46
2010-06-11 07:50:03 51°12.626 2°50.379 10 331 13.8 100450 46
2010-06-11 07:50:07 51°12.624 2°50.373 11.4 285 13.8 100450 46
2010-06-11 07:50:12 51°12.621 2°50.367 10.2 332 13.8 100450 45
2010-06-11 07:50:18 51°12.618 2°50.359 10.1 281 13.8 100450 45
2010-06-11 07:50:23 51°12.616 2°50.353 11.3 331 13.7 100450 45
2010-06-11 07:50:27 51°12.614 2°50.348 10.2 279 13.7 100450 45
2010-06-11 07:50:32 51°12.612 2°50.341 10.6 329 13.7 100450 45
2010-06-11 07:50:37 51°12.609 2°50.335 9.4 283 13.7 100450 45
2010-06-11 07:50:43 51°12.607 2°50.327 10 331 13.7 100450 46
2010-06-11 07:50:47 51°12.605 2°50.322 10 282 13.7 100450 46
2010-06-11 07:50:52 51°12.603 2°50.315 10.2 333 13.7 100450 45
2010-06-11 07:50:58 51°12.6 2°50.307 9.7 281 13.7 100450 45
2010-06-11 07:51:03 51°12.597 2°50.301 9.6 332 13.7 100460 45
2010-06-11 07:51:07 51°12.595 2°50.296 10.3 283 13.7 100460 45
2010-06-11 07:51:13 51°12.593 2°50.288 10.7 331 13.6 100460 45
2010-06-11 07:51:18 51°12.59 2°50.281 10.3 283 13.6 100460 45
2010-06-11 07:51:22 51°12.588 2°50.276 10.3 333 13.6 100460 46
2010-06-11 07:51:27 51°12.586 2°50.27 9.7 279 13.6 100460 46
2010-06-11 07:51:33 51°12.583 2°50.262 10.4 331 13.6 100450 46
2010-06-11 07:51:38 51°12.581 2°50.255 9.8 277 13.6 100450 46
2010-06-11 07:51:42 51°12.579 2°50.25 10.2 331 13.6 100460 47
2010-06-11 07:51:47 51°12.576 2°50.244 9.9 283 13.6 100460 47
2010-06-11 07:51:52 51°12.574 2°50.237 10.4 333 13.6 100460 44
2010-06-11 07:51:58 51°12.571 2°50.229 9.3 286 13.6 100460 44
2010-06-11 07:52:02 51°12.569 2°50.224 11 335 13.6 100450 45
2010-06-11 07:52:07 51°12.567 2°50.218 10.5 284 13.6 100450 45
2010-06-11 07:52:12 51°12.564 2°50.211 8.7 329 13.6 100460 45
2010-06-11 07:52:18 51°12.561 2°50.203 9.9 284 13.6 100460 45
2010-06-11 07:52:22 51°12.56 2°50.198 10.4 330 13.6 100450 44
2010-06-11 07:52:27 51°12.557 2°50.192 10.2 285 13.6 100450 44
2010-06-11 07:52:32 51°12.554 2°50.185 12.3 333 13.6 100460 46
2010-06-11 07:52:38 51°12.552 2°50.177 11.2 279 13.6 100460 46
2010-06-11 07:52:43 51°12.549 2°50.171 11 331 13.6 100460 45
2010-06-11 07:52:47 51°12.547 2°50.166 10.7 284 13.6 100460 45
2010-06-11 07:52:52 51°12.545 2°50.159 10.6 333 13.6 100460 45
2010-06-11 07:52:58 51°12.542 2°50.152 10.1 285 13.6 100460 45
2010-06-11 07:53:03 51°12.539 2°50.145 9.8 334 13.6 100460 46
2010-06-11 07:53:07 51°12.537 2°50.14 9.2 281 13.6 100460 46
2010-06-11 07:53:13 51°12.534 2°50.132 9.5 330 13.6 100460 46
2010-06-11 07:53:18 51°12.532 2°50.126 9.1 283 13.6 100460 46
2010-06-11 07:53:22 51°12.53 2°50.12 10 334 13.6 100460 45
2010-06-11 07:53:27 51°12.527 2°50.114 9.3 283 13.6 100460 45
2010-06-11 07:53:33 51°12.524 2°50.106 9 335 13.6 100460 45
2010-06-11 07:53:38 51°12.522 2°50.099 9 285 13.6 100460 45
2010-06-11 07:53:42 51°12.52 2°50.094 10.2 331 13.7 100450 46
2010-06-11 07:53:47 51°12.517 2°50.087 11.1 283 13.7 100450 46
2010-06-11 07:53:53 51°12.514 2°50.079 10.2 332 13.7 100460 45
2010-06-11 07:53:58 51°12.512 2°50.073 9.3 283 13.7 100460 45
2010-06-11 07:54:02 51°12.51 2°50.067 10.1 330 13.7 100460 45
2010-06-11 07:54:07 51°12.507 2°50.061 9.6 281 13.7 100460 45
2010-06-11 07:54:12 51°12.505 2°50.054 10.9 334 13.7 100470 45
2010-06-11 07:54:18 51°12.502 2°50.046 10.8 283 13.7 100470 45
2010-06-11 07:54:22 51°12.5 2°50.041 10.6 333 13.6 100460 46
2010-06-11 07:54:27 51°12.497 2°50.034 9.9 286 13.6 100460 46
2010-06-11 07:54:32 51°12.494 2°50.027 10.2 332 13.6 100460 45
2010-06-11 07:54:38 51°12.491 2°50.019 10.1 278 13.6 100460 45
2010-06-11 07:54:42 51°12.489 2°50.014 9.6 333 13.6 100450 46
2010-06-11 07:54:47 51°12.487 2°50.007 9.6 283 13.6 100450 46
2010-06-11 07:54:52 51°12.485 2°50 9.2 331 13.6 100460 46
2010-06-11 07:54:58 51°12.481 2°49.992 10.1 278 13.6 100460 46
2010-06-11 07:55:03 51°12.479 2°49.985 9.6 331 13.6 100460 44
2010-06-11 07:55:07 51°12.477 2°49.979 10.6 282 13.6 100460 44
2010-06-11 07:55:12 51°12.474 2°49.972 10.3 329 13.6 100460 45
2010-06-11 07:55:18 51°12.471 2°49.964 9.9 277 13.6 100460 45
2010-06-11 07:55:22 51°12.469 2°49.959 10.6 330 13.6 100470 44
2010-06-11 07:55:27 51°12.467 2°49.952 10.1 284 13.6 100470 44
2010-06-11 07:55:33 51°12.464 2°49.943 10.6 331 13.6 100460 45
2010-06-11 07:55:38 51°12.461 2°49.937 10.3 279 13.6 100460 45
2010-06-11 07:55:42 51°12.46 2°49.931 10.5 328 13.6 100460 46
2010-06-11 07:55:47 51°12.457 2°49.924 10.5 281 13.6 100460 46
2010-06-11 07:55:53 51°12.454 2°49.916 11.2 331 13.6 100460 46
2010-06-11 07:55:58 51°12.451 2°49.91 10.9 281 13.6 100460 46
2010-06-11 07:56:03 51°12.449 2°49.903 11.3 330 13.5 100460 46
2010-06-11 07:56:07 51°12.447 2°49.898 10.5 283 13.5 100460 46
2010-06-11 07:56:12 51°12.445 2°49.89 10.7 330 13.5 100470 45
2010-06-11 07:56:18 51°12.442 2°49.883 10.4 283 13.5 100470 45
2010-06-11 07:56:23 51°12.44 2°49.876 10.2 331 13.5 100460 46
2010-06-11 07:56:27 51°12.437 2°49.87 9.2 278 13.5 100460 46
2010-06-11 07:56:32 51°12.435 2°49.863 9.7 334 13.5 100460 46
2010-06-11 07:56:38 51°12.432 2°49.855 8.9 280 13.5 100460 46
2010-06-11 07:56:43 51°12.43 2°49.848 9.4 333 13.5 100460 46
2010-06-11 07:56:47 51°12.428 2°49.843 10.1 -999 13.5 100460 46
2010-06-11 07:56:53 51°12.425 2°49.835 8.3 333 13.6 100460 44
2010-06-11 07:56:58 51°12.422 2°49.827 8.3 285 13.6 100460 44
2010-06-11 07:57:03 51°12.42 2°49.82 8.3 331 13.6 100470 46
2010-06-11 07:57:07 51°12.418 2°49.815 9.8 283 13.6 100470 46
2010-06-11 07:57:13 51°12.415 2°49.806 9.6 330 13.6 100470 45
2010-06-11 07:57:17 51°12.413 2°49.801 8.5 281 13.6 100470 45
2010-06-11 07:57:23 51°12.41 2°49.792 10.6 328 13.7 100460 46
2010-06-11 07:57:27 51°12.408 2°49.786 10.9 284 13.7 100460 46
2010-06-11 07:57:33 51°12.405 2°49.778 8.6 331 13.7 100470 44
2010-06-11 07:57:37 51°12.403 2°49.772 8.8 282 13.7 100470 44
2010-06-11 07:57:43 51°12.4 2°49.764 10.6 331 13.7 100470 44
2010-06-11 07:57:47 51°12.398 2°49.758 8.5 280 13.7 100470 44
2010-06-11 07:57:53 51°12.395 2°49.749 9 333 13.7 100470 45
2010-06-11 07:57:57 51°12.393 2°49.744 7.4 277 13.7 100470 45
2010-06-11 07:58:02 51°12.391 2°49.737 9.5 334 13.7 100470 46
2010-06-11 07:58:07 51°12.388 2°49.73 9 279 13.7 100470 46
2010-06-11 07:58:13 51°12.385 2°49.721 7.3 332 13.7 100470 45
2010-06-11 07:58:17 51°12.383 2°49.715 9 282 13.7 100470 45
2010-06-11 07:58:22 51°12.38 2°49.708 8 335 13.7 100470 46
2010-06-11 07:58:27 51°12.378 2°49.701 7.6 283 13.7 100470 46
2010-06-11 07:58:32 51°12.375 2°49.694 8.4 333 13.8 100480 45
2010-06-11 07:58:38 51°12.372 2°49.685 9 282 13.8 100480 45
2010-06-11 07:58:42 51°12.369 2°49.68 8.1 335 13.8 100470 45
2010-06-11 07:58:47 51°12.367 2°49.673 8.2 278 13.8 100470 45
2010-06-11 07:58:52 51°12.364 2°49.666 10.8 336 13.8 100470 45
2010-06-11 07:58:58 51°12.361 2°49.657 10.5 282 13.8 100470 45
2010-06-11 07:59:03 51°12.358 2°49.65 8.9 336 13.8 100470 45
2010-06-11 07:59:07 51°12.356 2°49.644 9.3 284 13.8 100470 45
2010-06-11 07:59:12 51°12.353 2°49.638 9.9 338 13.8 100470 46
2010-06-11 07:59:18 51°12.349 2°49.63 10.2 277 13.8 100470 46
2010-06-11 07:59:23 51°12.347 2°49.623 9.6 332 13.8 100470 45
2010-06-11 07:59:27 51°12.345 2°49.617 9.1 285 13.8 100470 45
2010-06-11 07:59:32 51°12.342 2°49.611 9.7 331 13.8 100460 46
2010-06-11 07:59:37 51°12.339 2°49.604 10.3 284 13.8 100460 46
2010-06-11 07:59:43 51°12.336 2°49.596 10.2 332 13.7 100470 46
2010-06-11 07:59:47 51°12.334 2°49.59 10.2 281 13.7 100470 46
2010-06-11 07:59:52 51°12.331 2°49.584 10.1 334 13.7 100470 46
2010-06-11 07:59:58 51°12.328 2°49.575 9.4 285 13.7 100470 46
2010-06-11 08:00:03 51°12.326 2°49.569 9.9 331 13.7 100470 46
2010-06-11 08:00:07 51°12.324 2°49.563 9.8 284 13.7 100470 46
2010-06-11 08:00:13 51°12.321 2°49.555 11.2 336 13.7 100470 45
2010-06-11 08:00:18 51°12.318 2°49.548 9.5 282 13.7 100470 45
2010-06-11 08:00:22 51°12.316 2°49.542 10.1 335 13.7 100470 45
2010-06-11 08:00:27 51°12.314 2°49.535 10.3 284 13.7 100470 45
2010-06-11 08:00:33 51°12.311 2°49.527 9.5 333 13.7 100470 45
2010-06-11 08:00:38 51°12.308 2°49.521 10 282 13.7 100470 45
2010-06-11 08:00:42 51°12.306 2°49.515 9 336 13.6 100470 45
2010-06-11 08:00:47 51°12.304 2°49.508 9.8 285 13.6 100470 45
2010-06-11 08:00:52 51°12.301 2°49.502 10.1 331 13.6 100470 45
2010-06-11 08:00:58 51°12.298 2°49.493 10.3 282 13.6 100470 45
2010-06-11 08:01:02 51°12.296 2°49.488 9.9 338 13.6 100470 46
2010-06-11 08:01:07 51°12.293 2°49.481 9.6 277 13.6 100470 46
2010-06-11 08:01:12 51°12.291 2°49.475 9.3 335 13.7 100470 45
2010-06-11 08:01:18 51°12.288 2°49.467 10 284 13.7 100470 45
2010-06-11 08:01:23 51°12.285 2°49.46 10.6 332 13.7 100470 46
2010-06-11 08:01:27 51°12.283 2°49.455 10 278 13.7 100470 46
2010-06-11 08:01:32 51°12.28 2°49.448 10.2 330 13.7 100470 45
2010-06-11 08:01:38 51°12.277 2°49.44 9.7 283 13.7 100470 45
2010-06-11 08:01:43 51°12.275 2°49.433 9.7 332 13.7 100470 45
2010-06-11 08:01:47 51°12.272 2°49.428 9.9 283 13.7 100470 45
2010-06-11 08:01:52 51°12.27 2°49.421 9.8 330 13.7 100470 46
2010-06-11 08:01:58 51°12.267 2°49.413 10.9 280 13.7 100470 46
2010-06-11 08:02:02 51°12.265 2°49.407 11.9 332 13.7 100470 46
2010-06-11 08:02:07 51°12.262 2°49.401 10.1 286 13.7 100470 46
2010-06-11 08:02:13 51°12.26 2°49.392 9.2 330 13.6 100480 46
2010-06-11 08:02:18 51°12.258 2°49.385 9.6 281 13.6 100480 46
2010-06-11 08:02:22 51°12.256 2°49.38 10.1 331 13.6 100470 45
2010-06-11 08:02:27 51°12.254 2°49.373 10.5 284 13.6 100470 45
2010-06-11 08:02:33 51°12.251 2°49.365 9.7 331 13.6 100470 45
2010-06-11 08:02:38 51°12.25 2°49.358 9.7 286 13.6 100470 45
2010-06-11 08:02:42 51°12.248 2°49.352 11.1 329 13.6 100480 45
2010-06-11 08:02:47 51°12.246 2°49.345 10.2 -999 13.6 100480 45
2010-06-11 08:02:53 51°12.244 2°49.336 9.6 327 13.6 100480 45
2010-06-11 08:02:58 51°12.243 2°49.329 10 282 13.6 100480 45
2010-06-11 08:03:02 51°12.242 2°49.323 10 328 13.6 100480 44
2010-06-11 08:03:07 51°12.24 2°49.316 10.2 284 13.6 100480 44
2010-06-11 08:03:12 51°12.239 2°49.308 9.1 325 13.5 100470 45
2010-06-11 08:03:18 51°12.238 2°49.3 10 286 13.5 100470 45
2010-06-11 08:03:22 51°12.237 2°49.294 9.8 323 13.5 100470 46
2010-06-11 08:03:27 51°12.236 2°49.286 9.6 284 13.5 100470 46
2010-06-11 08:03:32 51°12.236 2°49.279 9.6 321 13.5 100470 45
2010-06-11 08:03:38 51°12.235 2°49.271 11.2 282 13.5 100470 45
2010-06-11 08:03:43 51°12.235 2°49.264 11.2 318 13.5 100450 46
2010-06-11 08:03:47 51°12.234 2°49.259 9.9 284 13.5 100450 46
2010-06-11 08:03:52 51°12.234 2°49.251 10 36 13.5 100460 46
2010-06-11 08:03:58 51°12.234 2°49.243 11.3 279 13.5 100460 46
2010-06-11 08:04:03 51°12.234 2°49.236 9.6 23 13.5 100460 45
2010-06-11 08:04:07 51°12.234 2°49.23 9.1 286 13.5 100460 45
2010-06-11 08:04:12 51°12.235 2°49.223 10.1 36 13.5 100450 46
2010-06-11 08:04:18 51°12.235 2°49.215 10.5 283 13.5 100450 46
2010-06-11 08:04:22 51°12.235 2°49.209 10.2 33 13.5 100460 46
2010-06-11 08:04:27 51°12.236 2°49.202 10.7 284 13.5 100460 46
2010-06-11 08:04:33 51°12.237 2°49.194 10.4 33 13.5 100450 45
2010-06-11 08:04:38 51°12.237 2°49.187 11.2 280 13.5 100450 45
2010-06-11 08:04:42 51°12.238 2°49.181 9.4 33 13.5 100450 45
2010-06-11 08:04:47 51°12.239 2°49.174 8.3 -999 13.5 100450 45
2010-06-11 08:04:53 51°12.239 2°49.166 9.5 34 13.5 100450 46
2010-06-11 08:04:58 51°12.24 2°49.159 10.7 284 13.5 100450 46
2010-06-11 08:05:03 51°12.241 2°49.152 11.1 35 13.5 100450 46
2010-06-11 08:05:07 51°12.241 2°49.147 10.9 282 13.5 100450 46
2010-06-11 08:05:13 51°12.242 2°49.139 11 32 13.6 100460 46
2010-06-11 08:05:18 51°12.243 2°49.131 10 284 13.6 100460 46
2010-06-11 08:05:23 51°12.243 2°49.125 10.4 40 13.6 100460 46
2010-06-11 08:05:27 51°12.244 2°49.119 8.3 285 13.6 100460 46
2010-06-11 08:05:32 51°12.245 2°49.112 9.6 36 13.5 100450 44
2010-06-11 08:05:38 51°12.246 2°49.104 9.3 284 13.5 100450 44
2010-06-11 08:05:43 51°12.246 2°49.098 8.9 33 13.5 100460 43
2010-06-11 08:05:47 51°12.247 2°49.092 11.8 -999 13.5 100460 43
2010-06-11 08:05:52 51°12.247 2°49.085 10.2 34 13.5 100460 46
2010-06-11 08:05:57 51°12.248 2°49.079 10.1 278 13.5 100460 46
2010-06-11 08:06:03 51°12.249 2°49.071 9 33 13.6 100460 45
2010-06-11 08:06:07 51°12.249 2°49.065 10.5 279 13.6 100460 45
2010-06-11 08:06:12 51°12.249 2°49.059 10.9 37 13.5 100450 44
2010-06-11 08:06:17 51°12.25 2°49.052 9.8 283 13.5 100450 44
2010-06-11 08:06:23 51°12.251 2°49.044 10.7 21 13.5 100450 46
2010-06-11 08:06:28 51°12.252 2°49.038 8.4 280 13.5 100450 46
2010-06-11 08:06:32 51°12.252 2°49.032 9 26 13.5 100460 45
2010-06-11 08:06:37 51°12.252 2°49.026 10.8 283 13.5 100460 45
2010-06-11 08:06:42 51°12.252 2°49.019 9.9 23 13.5 100450 46
2010-06-11 08:06:48 51°12.253 2°49.011 9.8 281 13.5 100450 46
2010-06-11 08:06:52 51°12.254 2°49.005 9.2 20 13.6 100460 46
2010-06-11 08:06:58 51°12.254 2°48.998 9.1 278 13.6 100460 46
2010-06-11 08:07:03 51°12.254 2°48.991 8.4 33 13.6 100460 45
2010-06-11 08:07:08 51°12.254 2°48.984 8.8 284 13.6 100460 45
2010-06-11 08:07:12 51°12.255 2°48.979 9.4 21 13.6 100440 44
2010-06-11 08:07:18 51°12.255 2°48.971 9.4 285 13.6 100440 44
2010-06-11 08:07:23 51°12.256 2°48.964 9.9 36 13.6 100460 45
2010-06-11 08:07:27 51°12.256 2°48.959 9.5 282 13.6 100460 45
2010-06-11 08:07:32 51°12.256 2°48.952 11.2 317 13.6 100460 45
2010-06-11 08:07:38 51°12.257 2°48.944 10.6 282 13.6 100460 45
2010-06-11 08:07:43 51°12.257 2°48.937 10.2 316 13.6 100450 46
2010-06-11 08:07:47 51°12.257 2°48.932 8.7 -999 13.6 100450 46
2010-06-11 08:07:52 51°12.257 2°48.925 9.6 34 13.6 100460 44
2010-06-11 08:07:58 51°12.258 2°48.917 9.9 283 13.6 100460 44
2010-06-11 08:08:03 51°12.258 2°48.91 9.6 36 13.6 100460 46
2010-06-11 08:08:07 51°12.258 2°48.905 8.3 280 13.6 100460 46
2010-06-11 08:08:12 51°12.258 2°48.898 8 39 13.5 100460 46
2010-06-11 08:08:17 51°12.258 2°48.891 9.4 279 13.5 100460 46
2010-06-11 08:08:23 51°12.258 2°48.882 9.1 39 13.6 100460 44
2010-06-11 08:08:27 51°12.259 2°48.877 9.9 281 13.6 100460 44
2010-06-11 08:08:32 51°12.259 2°48.87 9.5 34 13.6 100480 46
2010-06-11 08:08:37 51°12.259 2°48.863 8.8 279 13.6 100480 46
2010-06-11 08:08:43 51°12.26 2°48.854 9.8 315 13.6 100470 46
2010-06-11 08:08:48 51°12.259 2°48.847 8.3 279 13.6 100470 46
2010-06-11 08:08:52 51°12.26 2°48.842 9.6 316 13.6 100450 46
2010-06-11 08:08:57 51°12.26 2°48.834 10 279 13.6 100450 46
2010-06-11 08:09:02 51°12.26 2°48.827 9.6 318 13.6 100460 45
2010-06-11 08:09:08 51°12.261 2°48.818 10.5 285 13.6 100460 45
2010-06-11 08:09:12 51°12.261 2°48.813 10.3 315 13.6 100460 46
2010-06-11 08:09:18 51°12.261 2°48.804 8.9 285 13.6 100460 46
2010-06-11 08:09:23 51°12.261 2°48.797 10.1 316 13.6 100460 44
2010-06-11 08:09:27 51°12.261 2°48.791 8.8 278 13.6 100460 44
2010-06-11 08:09:32 51°12.262 2°48.784 9 317 13.6 100450 44
2010-06-11 08:09:38 51°12.262 2°48.775 8.6 282 13.6 100450 44
2010-06-11 08:09:43 51°12.262 2°48.768 9.7 35 13.6 100450 45
2010-06-11 08:09:47 51°12.263 2°48.762 9.8 -999 13.6 100450 45
2010-06-11 08:09:52 51°12.263 2°48.755 9.3 316 13.6 100460 44
2010-06-11 08:09:58 51°12.263 2°48.747 10.3 281 13.6 100460 44
2010-06-11 08:10:03 51°12.264 2°48.74 9.8 315 13.6 100460 44
2010-06-11 08:10:07 51°12.264 2°48.734 10.7 284 13.6 100460 44
2010-06-11 08:10:12 51°12.265 2°48.727 9.2 316 13.6 100450 46
2010-06-11 08:10:18 51°12.265 2°48.719 11.1 283 13.6 100450 46
2010-06-11 08:10:23 51°12.266 2°48.712 9.9 31 13.6 100460 45
2010-06-11 08:10:27 51°12.266 2°48.706 11.3 281 13.6 100460 45
2010-06-11 08:10:32 51°12.266 2°48.7 11.9 32 13.6 100460 45
2010-06-11 08:10:38 51°12.267 2°48.692 10.8 280 13.6 100460 45
2010-06-11 08:10:43 51°12.267 2°48.685 10.1 28 13.6 100460 46
2010-06-11 08:10:48 51°12.268 2°48.679 10.2 283 13.6 100460 46
2010-06-11 08:10:52 51°12.269 2°48.673 11.2 31 13.5 100450 45
2010-06-11 08:10:57 51°12.269 2°48.667 10.3 281 13.5 100450 45
2010-06-11 08:11:03 51°12.27 2°48.659 9.4 28 13.5 100460 44
2010-06-11 08:11:08 51°12.27 2°48.653 9.9 284 13.5 100460 44
2010-06-11 08:11:12 51°12.271 2°48.648 9.9 39 13.5 100450 46
2010-06-11 08:11:17 51°12.271 2°48.641 9.3 281 13.5 100450 46
2010-06-11 08:11:22 51°12.271 2°48.635 12 316 13.5 100470 45
2010-06-11 08:11:28 51°12.272 2°48.627 11.1 281 13.5 100470 45
2010-06-11 08:11:32 51°12.272 2°48.622 11 24 13.5 100470 46
2010-06-11 08:11:38 51°12.273 2°48.615 11.9 283 13.5 100470 46
2010-06-11 08:11:43 51°12.273 2°48.609 10.4 34 13.5 100450 45
2010-06-11 08:11:47 51°12.273 2°48.603 9.4 -999 13.5 100450 45
2010-06-11 08:11:52 51°12.274 2°48.597 10 23 13.5 100450 45
2010-06-11 08:11:58 51°12.274 2°48.59 9 284 13.5 100450 45
2010-06-11 08:12:03 51°12.275 2°48.583 8.4 315 13.5 100470 44
2010-06-11 08:12:07 51°12.275 2°48.578 9.2 278 13.5 100470 44
2010-06-11 08:12:12 51°12.276 2°48.572 9.3 29 13.5 100460 46
2010-06-11 08:12:18 51°12.276 2°48.564 9.4 283 13.5 100460 46
2010-06-11 08:12:23 51°12.276 2°48.557 9.8 39 13.5 100460 46
2010-06-11 08:12:27 51°12.276 2°48.552 10.8 282 13.5 100460 46
2010-06-11 08:12:32 51°12.277 2°48.545 10.6 36 13.6 100470 46
2010-06-11 08:12:38 51°12.277 2°48.537 9.5 282 13.6 100470 46
2010-06-11 08:12:43 51°12.278 2°48.531 10.7 36 13.6 100470 46
2010-06-11 08:12:47 51°12.278 2°48.525 9.6 284 13.6 100470 46
2010-06-11 08:12:53 51°12.279 2°48.518 10.3 39 13.6 100480 45
2010-06-11 08:12:58 51°12.279 2°48.511 10.6 280 13.6 100480 45
2010-06-11 08:13:03 51°12.28 2°48.505 9.7 23 13.6 100470 45
2010-06-11 08:13:07 51°12.281 2°48.499 10.7 282 13.6 100470 45
2010-06-11 08:13:13 51°12.281 2°48.491 9.4 37 13.6 100470 46
2010-06-11 08:13:18 51°12.282 2°48.485 10.1 278 13.6 100470 46
2010-06-11 08:13:22 51°12.282 2°48.479 10.7 40 13.6 100470 45
2010-06-11 08:13:27 51°12.283 2°48.473 9.8 281 13.6 100470 45
2010-06-11 08:13:33 51°12.284 2°48.465 10.4 39 13.6 100460 44
2010-06-11 08:13:38 51°12.285 2°48.458 11.3 284 13.6 100460 44
2010-06-11 08:13:42 51°12.286 2°48.453 10.8 33 13.5 100460 44
2010-06-11 08:13:47 51°12.286 2°48.447 11 -999 13.5 100460 44
2010-06-11 08:13:53 51°12.287 2°48.439 10.9 35 13.6 100470 45
2010-06-11 08:13:58 51°12.288 2°48.432 10.7 281 13.6 100470 45
2010-06-11 08:14:02 51°12.289 2°48.427 9.5 22 13.5 100460 46
2010-06-11 08:14:07 51°12.29 2°48.421 10.3 281 13.5 100460 46
2010-06-11 08:14:13 51°12.29 2°48.413 9.8 34 13.5 100470 44
2010-06-11 08:14:18 51°12.291 2°48.407 10.1 285 13.5 100470 44
2010-06-11 08:14:22 51°12.291 2°48.401 9.7 24 13.5 100470 46
2010-06-11 08:14:27 51°12.292 2°48.395 10.1 281 13.5 100470 46
2010-06-11 08:14:32 51°12.292 2°48.388 10.6 32 13.5 100470 45
2010-06-11 08:14:38 51°12.293 2°48.381 10.2 284 13.5 100470 45
2010-06-11 08:14:42 51°12.294 2°48.375 10.5 28 13.5 100470 46
2010-06-11 08:14:47 51°12.294 2°48.369 10.1 279 13.5 100470 46
2010-06-11 08:14:52 51°12.295 2°48.362 9.4 34 13.6 100480 45
2010-06-11 08:14:58 51°12.296 2°48.354 9 285 13.6 100480 45
2010-06-11 08:15:03 51°12.296 2°48.348 9.3 21 13.6 100470 44
2010-06-11 08:15:07 51°12.297 2°48.342 8.7 285 13.6 100470 44
2010-06-11 08:15:12 51°12.297 2°48.336 8.3 315 13.6 100480 44
2010-06-11 08:15:18 51°12.298 2°48.328 9.6 279 13.6 100480 44
2010-06-11 08:15:23 51°12.298 2°48.321 8.9 22 13.7 100470 44
2010-06-11 08:15:27 51°12.298 2°48.316 10 281 13.7 100470 44
2010-06-11 08:15:32 51°12.298 2°48.309 7.8 317 13.6 100480 45
2010-06-11 08:15:38 51°12.298 2°48.301 9.9 282 13.6 100480 45
2010-06-11 08:15:42 51°12.298 2°48.296 9.1 35 13.7 100480 44
2010-06-11 08:15:47 51°12.298 2°48.289 9.2 -999 13.7 100480 44
2010-06-11 08:15:52 51°12.298 2°48.282 10 318 13.7 100490 46
2010-06-11 08:15:58 51°12.298 2°48.274 8.9 279 13.7 100490 46
2010-06-11 08:16:03 51°12.297 2°48.268 10.2 319 13.7 100480 44
2010-06-11 08:16:07 51°12.297 2°48.263 10.1 283 13.7 100480 44
2010-06-11 08:16:13 51°12.296 2°48.255 8.9 321 13.7 100480 44
2010-06-11 08:16:18 51°12.296 2°48.248 9 283 13.7 100480 44
2010-06-11 08:16:22 51°12.295 2°48.243 9.5 322 13.7 100480 43
2010-06-11 08:16:27 51°12.295 2°48.236 10.1 285 13.7 100480 43
2010-06-11 08:16:32 51°12.294 2°48.229 9.5 322 13.7 100470 44
2010-06-11 08:16:38 51°12.293 2°48.221 8.6 285 13.7 100470 44
2010-06-11 08:16:42 51°12.293 2°48.216 9.3 323 13.7 100480 45
2010-06-11 08:16:47 51°12.292 2°48.209 8.5 278 13.7 100480 45
2010-06-11 08:16:52 51°12.291 2°48.203 11.4 324 13.7 100470 45
2010-06-11 08:16:58 51°12.29 2°48.194 11.8 282 13.7 100470 45
2010-06-11 08:17:02 51°12.289 2°48.189 11 321 13.7 100480 45
2010-06-11 08:17:07 51°12.288 2°48.183 9.4 278 13.7 100480 45
2010-06-11 08:17:12 51°12.288 2°48.176 10.3 328 13.7 100480 45
2010-06-11 08:17:18 51°12.286 2°48.168 11.2 284 13.7 100480 45
2010-06-11 08:17:23 51°12.285 2°48.162 11.4 326 13.7 100480 45
2010-06-11 08:17:27 51°12.285 2°48.157 9.3 285 13.7 100480 45
2010-06-11 08:17:32 51°12.284 2°48.15 12.3 322 13.7 100490 45
2010-06-11 08:17:38 51°12.282 2°48.142 12.4 279 13.7 100490 45
2010-06-11 08:17:43 51°12.282 2°48.135 10.9 321 13.7 100490 45
2010-06-11 08:17:47 51°12.281 2°48.13 11.3 -999 13.7 100490 45